Weather History for Fairbanks, AK

Change the Weather History Date:

Monday, November 7, 2011

  Actual Average Record
Temperature  
Mean Temperature 9 °F 6 °F  
Max Temperature 14 °F 14 °F 40 °F (1976)
Min Temperature 3 °F -2 °F -35 °F (1956)
Degree Days  
Heating Degree Days 56 59  
Month to date heating degree days 402 396  
Since 1 July heating degree days 2331 2655  
Cooling Degree Days 0 0  
Month to date cooling degree days 0 0  
Year to date cooling degree days 39 61  
Moisture  
Dew Point 7 °F    
Average Humidity 85    
Maximum Humidity 92    
Minimum Humidity 81    
Precipitation  
Precipitation 0.09 in 0.02 in 0.30 in (1945)
Month to date precipitation 0.21 0.16  
Year to date precipitation 8.34 9.66  
Snow  
Snow 1.60 in 0.50 in 2.80 in (1945)
Month to date snowfall 4.4 3.1  
Since 1 July snowfall 8.6 15.7  
Since 1 September snowfall 8.6 15.7  
Snow Depth 5.00 in    
Sea Level Pressure  
Sea Level Pressure 29.69 in    
Wind  
Wind Speed 5 mph (WSW)    
Max Wind Speed 9 mph    
Max Gust Speed -    
Visibility 4 miles    
Events Snow    
T = Trace of Precipitation, MM = Missing Value Source: NWS Daily Summary

Daily Weather History Graph

Daily Weather History Graph

Search for Another Location

Airport:

Trip Planner

Search our weather history database for the weather conditions in past years. The results will help you decide how hot, cold, wet, or windy it might be!

Date:

Astronomy

Nov. 07, 2011 Rise Set
Actual Time 8:58 AM AKST 4:10 PM AKST
Civil Twilight 8:01 AM AKST 5:08 PM AKST
Nautical Twilight 7:01 AM AKST 6:08 PM AKST
Astronomical Twilight 6:04 AM AKST 7:04 PM AKST
Moon 3:04 PM AKST (11/7) 5:23 AM AKST (11/7)
Length of Visible Light 9h 07m
Length of Day
7h 11m
Waxing Gibbous, 92% of the Moon is Illuminated
Nov 7
Waxing Gibbous
Nov 10
Full
Nov 18
Last Quarter
Nov 24
New
Dec 2
First Quarter

Hourly Weather History & Observations

Time (AKST) Temp. Windchill Dew Point Humidity Pressure Visibility Wind Dir Wind Speed Gust Speed Precip Events Conditions
12:53 AM 12.9 °F 0.7 °F 9.0 °F 84% 29.37 in 3.0 mi WSW 9.2 mph - 0.00 in Snow Light Snow
1:13 AM 12.2 °F -0.2 °F 8.6 °F 85% 29.35 in 2.0 mi SW 9.2 mph - 0.01 in Snow Light Snow
1:24 AM 12.2 °F -0.2 °F 8.6 °F 85% 29.36 in 1.5 mi WSW 9.2 mph - 0.01 in Snow Light Snow
1:53 AM 12.0 °F -0.4 °F 8.1 °F 84% 29.41 in 1.5 mi WSW 9.2 mph - 0.02 in Snow Light Snow
3:53 AM 10.9 °F 4.7 °F 6.1 °F 81% 29.49 in 4.0 mi Variable 3.5 mph - 0.01 in Snow Light Snow
4:53 AM 10.9 °F 2.9 °F 6.1 °F 81% 29.53 in 4.0 mi Variable 4.6 mph - 0.00 in Snow Light Snow
5:53 AM 10.0 °F 3.6 °F 6.1 °F 84% 29.57 in 4.0 mi SSE 3.5 mph - 0.00 in Snow Light Snow
6:53 AM 10.9 °F 1.4 °F 7.0 °F 84% 29.59 in 3.0 mi South 5.8 mph - 0.00 in Snow Light Snow
7:10 AM 10.4 °F - 6.8 °F 85% 29.55 in 2.0 mi Calm Calm - 0.01 in Snow Light Snow
7:53 AM 10.9 °F - 7.0 °F 84% 29.60 in 2.0 mi Calm Calm - 0.01 in Snow Light Snow
8:19 AM 10.4 °F - 6.8 °F 85% 29.58 in 1.8 mi Calm Calm - 0.00 in Snow Light Snow
8:53 AM 10.9 °F - 7.0 °F 84% 29.62 in 1.8 mi Calm Calm - 0.01 in Snow Light Snow
9:53 AM 10.9 °F - 7.0 °F 84% 29.65 in 2.0 mi Calm Calm - 0.01 in Snow Light Snow
10:11 AM 10.4 °F - 6.8 °F 85% 29.62 in 3.0 mi Calm Calm - 0.00 in Snow Light Snow
10:53 AM 8.1 °F -0.5 °F 6.1 °F 92% 29.67 in 5.0 mi North 4.6 mph - 0.00 in Snow Light Snow
11:21 AM 8.6 °F - 5.0 °F 85% 29.65 in 4.0 mi Calm Calm - 0.00 in Snow Light Snow
11:32 AM 10.4 °F 2.2 °F 6.8 °F 85% 29.65 in 1.5 mi North 4.6 mph - 0.00 in Snow Light Snow
11:53 AM 10.9 °F 0.2 °F 7.0 °F 84% 29.70 in 1.8 mi North 6.9 mph - 0.00 in Snow Light Snow
12:12 PM 10.4 °F 0.8 °F 6.8 °F 85% 29.66 in 5.0 mi North 5.8 mph - 0.00 in Snow Light Snow
12:53 PM 9.0 °F -2.2 °F 6.1 °F 88% 29.72 in 5.0 mi North 6.9 mph - 0.00 in Snow Light Snow
1:53 PM 10.0 °F -0.9 °F 7.0 °F 87% 29.74 in 7.0 mi NNW 6.9 mph - 0.00 in Snow Light Snow
2:15 PM 10.4 °F 2.2 °F 6.8 °F 85% 29.70 in 2.0 mi NNW 4.6 mph - 0.00 in Snow Light Snow
2:53 PM 12.0 °F - 8.1 °F 84% 29.75 in 2.0 mi Calm Calm - 0.00 in Snow Light Snow
3:53 PM 12.9 °F 2.6 °F 9.0 °F 84% 29.77 in 2.0 mi Variable 6.9 mph - 0.00 in Snow Light Snow
4:19 PM 12.2 °F 6.1 °F 8.6 °F 85% 29.74 in 1.8 mi SSW 3.5 mph - 0.01 in Snow Light Snow
4:25 PM 12.2 °F 6.1 °F 8.6 °F 85% 29.74 in 2.0 mi Variable 3.5 mph - 0.01 in Snow Light Snow
4:36 PM 12.2 °F 6.1 °F 8.6 °F 85% 29.75 in 6.0 mi Variable 3.5 mph - 0.01 in Snow Light Snow
4:42 PM 12.2 °F 6.1 °F 8.6 °F 85% 29.75 in 6.0 mi Variable 3.5 mph - 0.01 in   Overcast
4:53 PM 12.0 °F 5.9 °F 8.1 °F 84% 29.80 in 6.0 mi SSW 3.5 mph - 0.01 in   Overcast
5:53 PM 10.9 °F 4.7 °F 8.1 °F 88% 29.82 in 6.0 mi SSW 3.5 mph - 0.00 in Snow Light Snow
6:37 PM 12.2 °F 6.1 °F 8.6 °F 85% 29.80 in 2.5 mi SSW 3.5 mph - 0.00 in Snow Light Snow
6:46 PM 12.2 °F - 8.6 °F 85% 29.81 in 3.0 mi Calm Calm - 0.00 in Snow Light Snow
6:53 PM 10.9 °F 4.7 °F 8.1 °F 88% 29.85 in 4.0 mi Variable 3.5 mph - 0.00 in Snow Light Snow
7:53 PM 10.9 °F 4.7 °F 7.0 °F 84% 29.88 in 4.0 mi Variable 3.5 mph - 0.00 in Snow Light Snow
8:53 PM 10.9 °F 4.7 °F 7.0 °F 84% 29.91 in 4.0 mi SW 3.5 mph - 0.01 in Snow Light Snow
9:53 PM 9.0 °F - 6.1 °F 88% 29.93 in 6.0 mi Calm Calm - 0.00 in Snow Light Snow
10:53 PM 8.1 °F 1.4 °F 5.0 °F 87% 29.96 in 7.0 mi SSW 3.5 mph - 0.00 in   Mostly Cloudy
11:53 PM 5.0 °F - 1.9 °F 87% 30.00 in 9.0 mi Calm Calm - 0.00 in Snow Light Snow